Regional Weather Roundup
Issued by NWS

Home | Current Version | Previous Version | Text Only | Print | Product List | Glossary Off
Versions: 1 2 3 4 5 6 7 8 9 10 11 12 13 14 15 16 17 18 19 20 21 22 23 24 25 26 27 28 29 30 31 32 33 34 35 36 37 38 39 40 41 42 43 44 45 46 47 48 49 50

000
ASUS43 KTOP 311259
RWRKS

WEATHER ROUNDUP FOR KANSAS
NATIONAL WEATHER SERVICE GOODLAND KS
800 AM CDT FRI JUL 31 2015

NOTE:  "FAIR" INDICATES FEW OR NO CLOUDS BELOW 12,000 FEET WITH NO
SIGNIFICANT WEATHER AND/OR OBSTRUCTIONS TO VISIBILITY.

KSZ001>006-013>018-027>032-041>047-311400-
NORTHWEST KANSAS

CITY           SKY/WX    TMP DP  RH WIND       PRES   REMARKS
GOODLAND       SUNNY     63  61  93 W3        30.28S FOG
HAYS           MOSUNNY   68  61  77 CALM      30.21S
HILL CITY      SUNNY     71  69  93 CALM      30.22S
RUSSELL        SUNNY     70  69  97 SW5       30.20R
$$

KSZ061>065-074>080-084>089-311400-
SOUTHWEST KANSAS

CITY           SKY/WX    TMP DP  RH WIND       PRES   REMARKS
DODGE CITY     CLOUDY    70  67  90 CALM      30.24S FOG
ELKHART          N/A     67  62  84 SW5         N/A
GARDEN CITY    PTSUNNY   70  68  93 CALM      30.25R FOG
GREAT BEND     CLOUDY    68  64  88 S3        30.22R VSB<1/4
LIBERAL        CLOUDY    72  66  83 CALM      30.24R
PRATT          MOSUNNY   70  70 100 CALM      30.23R FOG
$$

KSZ066>073-081>083-090>101-311400-
SOUTHEAST KANSAS

CITY           SKY/WX    TMP DP  RH WIND       PRES   REMARKS
CHANUTE        SUNNY     73  67  81 SE3       30.18S
COFFEYVILLE    PTSUNNY   76  68  76 CALM      30.16S
HUTCHINSON     SUNNY     73  68  84 CALM      30.20R
MEDICINE LODGE   N/A     72  70  93 CALM      30.21R
NEWTON         SUNNY     70  63  78 E5        30.22S
PARSONS        MOSUNNY   75  68  78 CALM      30.18S
WICHITA INTL   MOSUNNY   74  69  85 E5        30.18F
WICHITA JABRA  SUNNY     72  68  87 CALM      30.19S
WICHITA MCCONL SUNNY     74  65  74 E6        30.19S
WINFIELD       MOSUNNY   74  68  81 NE3       30.19R
$$

KSZ007>012-019>026-033>040-048>060-102>105-311400-
NORTHEAST KANSAS

CITY           SKY/WX    TMP DP  RH WIND       PRES   REMARKS
CONCORDIA      SUNNY     72  68  87 W5        30.19S
EMPORIA        SUNNY     68  67  96 CALM      30.19S
LAWRENCE       SUNNY     66  64  93 CALM      30.19R
MANHATTAN      SUNNY     68  65  90 CALM      30.18S
OLATHE IND     SUNNY     69  65  86 S5        30.19S
OLATHE EXE     SUNNY     68  64  87 S3        30.18S
SALINA         SUNNY     71  67  87 CALM      30.19S
TOPEKA BILLARD SUNNY     68  65  90 CALM      30.19R
TOPEKA FORBES  SUNNY     69  64  84 CALM      30.19R
$$


USA.gov is the U.S. government's official web portal to all federal, state and local government web resources and services.